Location: Cahas Mountain Overlook
(37.0833°N, 80.1000°W)
Time: 09:00:37
(UTC-05:00)

S-56A Canister/Altair - Pass Details

Date: 01 December 2023
Orbit: 640 x 2488 km, 38.9° (Epoch: 25 February)

Event Time Altitude Azimuth Distance (km) Brightness Sun altitude
Rises 12:30:01 0° 233° (SW) 3,059 11.2 30.9°
Reaches altitude 10° 12:32:30 10° 227° (SW) 2,059 10.6 30.8°
Maximum altitude 12:36:49 46° 155° (SSE) 860 9.1 30.7°
Drops below altitude 10° 12:41:17 10° 81° (E) 2,126 9.7 30.6°
Sets 12:43:53 0° 76° (ENE) 3,172 10.5 30.5°
